Location: Arroyo de San Miguel
(40.9167°N, 4.6667°W)
Time: 14:17:25
(UTC+00:00)

Spot 2 Rocket - Pass Details

Date: 19 May 2025
Orbit: 753 x 766 km, 98.3° (Epoch: 17 June)

Event Time Altitude Azimuth Distance (km) Brightness Sun altitude
Exits shadow 21:57:48 29° 201° (SSW) 1,370 4.5 -21.3°
Maximum altitude 22:00:04 49° 260° (W) 968 4.1 -21.5°
Drops below altitude 10° 22:04:57 10° 336° (NNW) 2,290 7.1 -22.0°
Sets 22:07:20 0° 342° (NNW) 3,221 8.1 -22.3°
